| Date | Temp | Humidity | Rainfall | Dew Point | Wind Direction | Wind Speed | Wind Pressure | Condition | Visibility |
|---|---|---|---|---|---|---|---|---|---|
| 2025-05-31 11:58:34 | 32 | 60 | 0.0 | 24 | 200 | 15.2 | 1012 | Partly Cloudy (Day) | 20 KM |
| 2025-05-31 11:01:17 | 32 | 63 | 0.0 | 24 | 240 | 11.4 | 1013 | Distant showers | 20 KM |
| 2025-05-31 09:58:29 | 31 | 66 | 0.0 | 24 | 210 | 7.0 | 1013 | Partly Cloudy (Day) | 15 km |
| 2025-05-31 09:00:32 | 30 | 72 | 0.0 | 24 | 200 | 5.0 | 1013 | Partly Cloudy (Day) | 15 km |
| 2025-05-31 08:01:14 | 28 | 82 | 25 | 180 | 3.8 | 1013 | Partly Cloudy (Day) | 20 km | |
| 2025-05-31 07:00:43 | 26 | 92 | 24 | 160 | 3.8 | 1013 | Partly Cloudy (Day) | 15 km | |
| 2025-05-31 05:58:52 | 25 | 94 | 24 | 190 | 1.9 | 1012 | Partly Cloudy (Day) | 10 km | |
| 2025-05-31 04:59:45 | 26 | 94 | 25 | 220 | 5.7 | 1012 | Partly Cloudy (Night) | 10 km | |
| 2025-05-31 04:01:23 | 26 | 93 | 25 | 320 | 3.8 | 1011 | Partly Cloudy (Night) | 10 km | |
| 2025-05-31 02:59:27 | 26 | 93 | 25 | 130 | 3.8 | 1013 | Partly Cloudy (Night) | 10 km | |
| 2025-05-31 02:00:15 | 27 | 90 | 0.00 | 25 | 200 | 3.8 | 1012 | Cloudy | 10 KM |
| 2025-05-31 00:59:06 | 27 | 87 | 0.00 | 24 | 170 | 3.8 | 1013 | Cloudy | 10 KM |
| 2025-05-31 00:05:34 | 26 | 88 | 0.00 | 24 | 140 | 5.7 | 1013 | Cloudy | 10 KM |
| 2025-05-30 23:01:31 | 27 | 84 | 0.0 | 24 | 220 | 5.7 | 1013 | Cloudy | 10 KM |
| 2025-05-30 22:02:05 | 28 | 81 | 0.00 | 24 | 220 | 7.6 | 1013 | Cloudy | 10 KM |
| 2025-05-30 20:59:39 | 28 | 80 | 24 | 210 | 9.5 | 1012 | Lightning | 10 KM | |
| 2025-05-30 19:56:29 | 28 | 79 | 24 | 210 | 11.4 | 1011 | Lightning | 10 KM | |
| 2025-05-30 18:59:16 | 29 | 80 | 25 | 240 | 13.3 | 1011 | Partly Cloudy (Night) | 10 KM | |
| 2025-05-30 18:02:47 | 30 | 76 | 25 | 250 | 19.0 | 1010 | Distant showers | 15 KM | |
| 2025-05-30 17:00:19 | 31 | 70 | 0.0 | 25 | 270 | 9.0 | 1010 | Distant showers | 15 KM |
| 2025-05-30 16:01:25 | 31 | 69 | 0.0 | 24 | 270 | 10.0 | 1010 | Partly Cloudy (Day) | 20 KM |
| 2025-05-30 15:00:02 | 32` | 64 | 0.0 | 24 | 270 | 9.0 | 1010 | Partly Cloudy (Day) | 20 KM |
| 2025-05-30 13:58:15 | 32 | 58 | 0.0 | 23 | 270 | 10.0 | 1011 | Partly Cloudy (Day) | 20 KM |
| 2025-05-30 12:58:22 | 31 | 64 | 0.0 | 23 | 260 | 11.0 | 1012 | Partly Cloudy (Day) | 10 KM |
| 2025-05-30 12:00:29 | 31 | 70 | 24 | 230 | 15.2 | 1012 | Partly Cloudy (Day) | 20 km |